HUANJING 1A (HJ-1A)

Last updated on Mon Sep 21 2026 00:02:45 GMT+0000 (Coordinated Universal Time)

1 33320U 08041A 26263.63726247 .00000472 00000+0 62478-4 0 9993 2 33320 97.6795 245.8475 0018607 180.3540 179.7665 14.84166976972566
UTC large
Height (km)
Speed (km/s)
/
Latitude / Longitude
Inclination (degrees)
Orbital Period (minutes)
Azimuth
Elevation
Range (km)
Doppler Factor

Next 0 passes for location: London (51.5072 / 0.1276)

No passes found over London.
HUANJING 1A (HJ-1A)